Location: Katzenstein
(51.7484°N, 10.2155°E)
Time: 23:18:20
(UTC+00:00)

SL-16 R/B - Pass Details

Date: 17 February 2020
Orbit: 843 x 847 km, 71.0° (Epoch: 05 April)

Event Time Altitude Azimuth Distance (km) Brightness Sun altitude
Exits shadow 03:00:15 28° 132° (SE) 1,541 3.7 -32.7°
Maximum altitude 03:01:39 32° 106° (ESE) 1,432 3.7 -32.5°
Drops below altitude 10° 03:06:35 10° 45° (NE) 2,476 5.4 -31.8°
Sets 03:09:16 0° 36° (NE) 3,415 6.2 -31.4°
